Location: *
(43.4667°N, 11.6833°E)
Time: 05:52:16
(UTC+00:00)

SPOT 5 - Pass Details

Date: 19 July 2019
Orbit: 622 x 815 km, 98.3° (Epoch: 21 August)

Event Time Altitude Azimuth Distance (km) Brightness Sun altitude
Exits shadow 21:24:17 27° 204° (SSW) 1,431 4.1 -20.5°
Maximum altitude 21:26:39 46° 261° (W) 1,007 3.7 -20.7°
Drops below altitude 10° 21:31:20 10° 334° (NNW) 2,214 6.6 -21.1°
Sets 21:33:38 0° 341° (NNW) 3,107 7.7 -21.3°
